Location: Palomar Mountain Lodge
(33.3110°N, 116.8495°W)
Time: 00:49:52
(UTC-07:00)

Lacrosse 5 - Pass Details

Date: 12 July 2018
Orbit: 714 x 724 km, 57.0° (Epoch: 10 July)

Event Time Altitude Azimuth Distance (km) Brightness Sun altitude
Rises 22:54:02 0° 319° (NW) 3,115 6.4 -28.0°
Reaches altitude 10° 22:56:25 10° 318° (NW) 2,191 5.3 -28.2°
Enters shadow 23:00:34 58° 296° (WNW) 826 2.3 -28.7°
